GW0977 Weather Reports


time (UTC)temp
C
wind
direction
speed
KPH
gust
KPH
rain 1hr
cm
rain 24hr
cm
rain mn
cm
humidity
%
barometer
mb
20260505011600 23 315 16.1 32.2 0.00 0.00 0.00 36 1002.3
20260505010104 25 355 6.4 17.7 0.00 0.00 0.00 31 1001.9
20260505004600 26 0 0.0 6.4 0.00 0.00 0.00 29 1001.4
20260505003106 27 318 1.6 6.4 0.00 0.00 0.00 27 1001.3
20260505001601 27 294 4.8 12.9 0.00 0.00 0.00 26 1001.3
20260504234559 27 309 4.8 19.3 0.00 0.00 0.00 25 1001.2
20260504233059 27 287 9.7 19.3 0.00 0.00 0.00 25 1001.1
20260504231558 28 293 3.2 20.9 0.00 0.00 0.00 26 1001.1
20260504230059 27 325 8.0 17.7 0.00 0.00 0.00 26 1001.2
20260504224558 27 273 9.7 19.3 0.00 0.00 0.00 27 1001.2
20260504223117 27 0 6.4 14.5 0.00 0.00 0.00 30 1001.2
20260504221602 27 254 6.4 25.7 0.00 0.00 0.00 29 1001.1
20260504214558 28 232 9.7 25.7 0.00 0.00 0.00 29 1001.0
20260504213109 28 237 11.3 25.7 0.00 0.00 0.00 31 1001.0
20260504211651 28 282 6.4 25.7 0.00 0.00 0.00 32 1001.0
20260504210101 27 262 8.0 19.3 0.00 0.00 0.00 32 1001.1
20260504204604 28 286 6.4 20.9 0.00 0.00 0.00 32 1001.2
20260504203107 28 260 4.8 22.5 0.00 0.00 0.00 31 1001.2
20260504201613 28 262 9.7 20.9 0.00 0.00 0.00 31 1001.3
20260504200101 28 264 6.4 22.5 0.00 0.00 0.00 35 1001.3
20260504194559 28 246 6.4 19.3 0.00 0.00 0.00 36 1001.3
20260504193110 28 97 3.2 19.3 0.00 0.00 0.00 39 1001.5
20260504191612 27 242 8.0 17.7 0.00 0.00 0.00 39 1001.5
20260504190109 27 180 6.4 19.3 0.00 0.00 0.00 42 1001.7
20260504184557 26 265 8.0 24.1 0.00 0.00 0.00 40 1001.8
20260504183057 26 242 11.3 19.3 0.00 0.00 0.00 41 1001.9
20260504181604 26 142 8.0 20.9 0.00 0.00 0.00 41 1001.9
20260504174602 25 221 9.7 20.9 0.00 0.00 0.00 44 1002.2
20260504173100 25 220 8.0 20.9 0.00 0.00 0.00 45 1002.2
20260504171601 25 229 9.7 22.5 0.00 0.00 0.00 46 1002.4
20260504120103 13 128 1.6 4.8 0.00 0.00 0.00 75 1003.2
20260504081556 13 0 0.0 1.6 0.00 0.00 0.00 75 1005.6
20260504060138 15 150 6.4 14.5 0.00 0.00 0.00 63 1007.6
20260504044600 16 167 0.0 8.0 0.00 0.00 0.00 56 1007.8
20260504043101 17 178 1.6 8.0 0.00 0.00 0.00 48 1008.0
20260504041559 17 0 0.0 4.8 0.00 0.00 0.00 48 1007.9
20260504040132 17 0 0.0 0.0 0.00 0.00 0.00 47 1008.0
20260504034602 17 0 0.0 1.6 0.00 0.00 0.00 48 1008.1
20260504033058 17 0 0.0 0.0 0.00 0.00 0.00 47 1008.3
20260504031625 17 0 0.0 3.2 0.00 0.00 0.00 45 1008.2
20260504030059 17 0 0.0 0.0 0.00 0.00 0.00 45 1008.3
20260504024603 18 0 0.0 3.2 0.00 0.00 0.00 44 1008.3
20260504023056 18 0 0.0 1.6 0.00 0.00 0.00 44 1008.4
20260504021557 18 0 0.0 0.0 0.00 0.00 0.00 43 1008.5
20260504020112 18 0 0.0 0.0 0.00 0.00 0.00 44 1008.7
20260504014558 19 0 0.0 3.2 0.00 0.00 0.00 44 1008.6
20260504013058 20 0 0.0 0.0 0.00 0.00 0.00 42 1008.6